Regional Weather Roundup
Issued by NWS

Home | Current Version | Previous Version | Text Only | Print | Product List | Glossary On
Versions: 1 2 3 4 5 6 7 8 9 10 11 12 13 14 15 16 17 18 19 20 21 22 23 24 25 26 27
000
ASUS43 KDMX 192207
RWRIA

WEATHER ROUNDUP FOR IOWA
NATIONAL WEATHER SERVICE DES MOINES IA
500 PM CDT SAT APR 19 2014

NOTE: "FAIR" INDICATES FEW OR NO CLOUDS BELOW 12,000 FEET WITH NO
SIGNIFICANT WEATHER AND/OR OBSTRUCTIONS TO VISIBILITY.

* - THESE STATIONS ARE NOT NWS STATIONS...THUS NOT UNDER NWS
QUALITY CONTROL.  THEY ALSO DO NOT REPORT WEATHER SUCH
AS PRECIPITATION OR FOG.

IAZ001>003-012>014-020>022-031>034-043>046-192300-
   NORTHWEST IOWA

CITY           SKY/WX    TMP DP  RH WIND       PRES   REMARKS
CARROLL *      CLOUDY    75  41  29 S18G26    30.00S
CHEROKEE *     CLOUDY    75  46  35 SW16G24   29.96F
DENISON *      CLOUDY    77  43  29 SW18      29.97F
LE MARS *      CLOUDY    73  48  40 W12       29.97R
ORANGE CITY *  CLOUDY    73  46  38 W12       29.98R
SHELDON *      CLOUDY    72  48  43 W10       29.97R
SIOUX CITY     CLOUDY    76  48  37 SW13      29.96S
SPENCER        CLOUDY    74  47  38 SW13      29.97F
STORM LAKE *   CLOUDY    75  45  33 S21G28    29.98F
$$

IAZ055>058-069>071-079>083-090>094-192300-
   SOUTHWEST IOWA

CITY           SKY/WX    TMP DP  RH WIND       PRES   REMARKS
ATLANTIC *     PTSUNNY   75  43  31 SW22G28   29.99F
AUDUBON *      PTSUNNY   75  30  19 SW16G23   30.02S
CLARINDA *     SUNNY     79  43  27 S20G28    30.02S
COUNCIL BLFS * PTSUNNY   79  46  31 S17G24    29.97F
CRESTON *      SUNNY     75  43  31 S23       30.03F
HARLAN  *      CLOUDY    75  43  31 S21G28    30.02F
LAMONI         PTSUNNY   76  42  29 S15G24    30.04F
RED OAK *      PTSUNNY   77  45  31 S20G30    30.00S
SHENANDOAH *   MOSUNNY   81  45  28 S24G30    29.99F
$$

IAZ047>049-059>061-072>074-084-192300-
   CENTRAL IOWA

CITY           SKY/WX    TMP DP  RH WIND       PRES   REMARKS
AMES           PTSUNNY   76  42  29 SW24      30.03F
ANKENY *       SUNNY     75  43  31 S17G23    30.03S
CHARITON *     SUNNY     75  43  31 S21G29    30.05F
DES MOINES     CLOUDY    77  42  28 S17G26    30.04F
GRINNELL*      PTSUNNY   73  41  31 S18G31    30.07F
KNOXVILLE *    SUNNY     75  45  33 S21G26    30.06S
MARSHALLTOWN   PTSUNNY   75  43  31 S20G32    30.04F
NEWTON *       SUNNY     75  43  31 S21G29    30.06S
PELLA *        PTSUNNY   75  45  33 S15G25    30.08F
PERRY *          N/A     79  34  19 S21G28    30.02S
$$

IAZ004>006-015-016-023>025-035-036-192300-
   NORTH CENTRAL IOWA

CITY           SKY/WX    TMP DP  RH WIND       PRES   REMARKS
ALGONA *       PTSUNNY   77  41  27 SW22G31   29.98S
CLARION *      MOSUNNY   77  43  29 S21G33    30.01S
ESTHERVILLE    CLOUDY    73  48  41 SW18      29.97S
FORT DODGE *   MOSUNNY   77  45  31 S18G30    30.01S
MASON CITY     PTSUNNY   74  44  34 S17G28    30.02F
FOREST CITY *  PTSUNNY   75  43  31 S18G26    30.00S
IOWA FALLS *     N/A     75  41  29 S18G28    30.05S
$$

IAZ007>011-017>019-026>030-037>042-050>054-066-192300-
   NORTHEAST IOWA

CITY           SKY/WX    TMP DP  RH WIND       PRES   REMARKS
CEDAR RAPIDS   PTSUNNY   73  40  30 S18G26    30.10F
CHARLES CITY * PTSUNNY   70  43  37 S18G25    30.06F
CLINTON *      PTSUNNY   72  36  26 S17       30.18F
DECORAH *      SUNNY     72  39  30 S18G32    30.07F
DUBUQUE        PTSUNNY   69  37  30 S20G26    30.14F
MONTICELLO *   SUNNY     72  41  33 S14G23    30.12F
OELWEIN *      SUNNY    N/A N/A N/A S26       30.09F
WATERLOO       MOSUNNY   74  42  31 S21G26    30.05F
$$

IAZ064-065-067-068-078-192300-
   EAST CENTRAL IOWA

CITY           SKY/WX    TMP DP  RH WIND       PRES   REMARKS
DAVENPORT      PTSUNNY   72  36  26 S15       30.15F
IOWA CITY      PTSUNNY   74  43  32 S18       30.12F
MT. PLEASANT * PTSUNNY   75  36  23 S14G23    30.13F
MUSCATINE *    SUNNY     75  41  29 S15G22    30.13F
QUAD CITIES    MOSUNNY   73  35  25 SE17      30.14F
$$

IAZ062-063-075>077-085>089-095>099-192300-
   SOUTHEAST IOWA

CITY           SKY/WX    TMP DP  RH WIND       PRES   REMARKS
BURLINGTON     PTSUNNY   74  41  30 S13G22    30.13F
FAIRFIELD *    SUNNY     75  41  29 S18       30.10F
FORT MADISON * MOSUNNY   75  41  29 S10G16    30.15S
KEOKUK *       SUNNY     75  43  31 SW10G17   30.13S
OSKALOOSA *      N/A     77  43  29 S21G29    30.09F
CENTERVILLE *  SUNNY     75  45  33 S17       30.10F
OTTUMWA        PTSUNNY   76  41  28 S18       30.08F
WASHINGTON *   SUNNY     75  41  29 S15G22    30.11F
$$

ABBREVIATIONS USED IN REMARKS
   TC - TEMPERATURES IN CELSIUS
  WCI - WIND CHILL INDEX
   HX - HEAT INDEX
  VSB - VISIBILITY
$$




USA.gov is the U.S. government's official web portal to all federal, state and local government web resources and services.